Location: Desio
(45.6167°N, 9.2167°E)
Time: 23:25:47
(UTC+00:00)

Daily predictions for brighter satellites

Satellite Brightness Start Highest point End
(mag) Time Altitude Azimuth Time Altitude Azimuth Time Altitude Azimuth
Cosmos 2233 Rocket 4.4 17:38:47 10° SSW 17:44:59 72° W 17:51:10 10° N
COSMO-SKYMED 1 2.9 17:46:00 10° N 17:50:21 73° WNW 17:54:40 10° SSW
Shenzhou-11 Module 3.7 17:50:08 10° SSE 17:50:25 10° SSE 17:50:42 10° SSE
Ariane Rocket 4.3 17:49:05 10° ESE 17:52:49 21° ENE 17:56:35 10° NNE
Nadezhda 4 Rocket 4.4 17:47:31 10° N 17:53:13 39° ENE 17:58:54 10° SE
H-2A R/B 2.4 17:48:48 10° SE 17:53:30 43° ENE 17:58:21 10° N
Cosmos 1689 Rocket 3.9 17:51:21 10° N 17:54:08 36° WNW 17:56:52 10° SW
SJ 16-02 4.2 17:52:06 10° W 17:55:08 18° NW 17:58:12 10° NNW
Exosat Rocket 4.4 17:52:47 10° SSE 17:57:25 28° ESE 18:01:40 10° NE
Cosmos 2263 Rocket 3.6 17:53:10 10° SW 17:58:23 40° NW 18:03:40 10° NNE
USA 116 3.8 17:56:56 10° NNE 18:00:35 53° ESE 18:04:40 10° S
Cosmos 1939 Rocket 4.0 17:57:28 10° S 18:01:29 50° W 18:05:33 10° NNW
Cosmos 1844 Rocket 2.8 17:57:20 10° S 18:02:43 54° ESE 18:08:09 10° NE
Cosmos 372 Rocket 4.1 17:59:20 10° SSW 18:04:34 85° WNW 18:09:50 10° NNE
Cosmos 1707 2.6 18:01:46 10° N 18:05:37 86° E 18:09:26 10° S
Cosmos 1626 4.1 18:05:15 10° NE 18:06:53 12° ENE 18:07:28 12° ENE
NOSS 3-2 (C) 4.2 17:59:58 10° NW 18:07:22 64° NE 18:15:44 10° SE
Cosmos 2278 Rocket4.218:09:59ENE18:09:59ENE18:03:58SE
CZ-2C R/B 3.6 18:06:16 10° SW 18:07:32 11° SSW 18:08:48 10° S
Cosmos 1844 3.9 18:04:42 10° S 18:10:10 50° ESE 18:15:36 10° NE
Cosmos 2034 Rocket 4.2 18:04:21 10° SSE 18:10:28 52° E 18:16:35 10° NNE
ISS -2.5 18:08:19 10° W 18:11:31 38° NNW 18:14:42 10° NE
NOSS 3-4 (A) 4.1 18:06:36 10° S 18:11:39 31° ESE 18:16:57 10° NE
NOSS 3-4 (C) 4.1 18:06:44 10° S 18:11:46 30° ESE 18:17:02 10° NE
USA 186 3.2 18:11:04 16° ESE 18:12:35 21° ENE 18:15:09 10° NNE
Meteor 1-12 Rocket 4.3 18:07:58 10° S 18:13:51 79° E 18:19:38 10° NNE
Cosmos 1300 Rocket 3.5 18:14:46 10° S 18:19:11 87° E 18:23:39 10° N
Okean 1 Rocket 3.8 18:18:29 10° SSE 18:22:27 32° E 18:26:28 10° NNE
Sich 1 Rocket 4.5 18:19:09 10° SSW 18:23:34 54° WNW 18:28:04 10° N
Cosmos 2298 Rocket 4.1 18:20:31 10° SSW 18:25:51 83° WNW 18:31:14 10° NNE
Resurs 01 Rocket 3.6 18:25:51 13° ENE 18:26:14 13° ENE 18:28:11 10° NNE
CENTAUR R/B 3.2 18:18:25 10° NW 18:26:29 75° NE 18:34:46 12° SE
Cosmos 1833 Rocket 3.9 18:23:05 10° N 18:27:39 24° NE 18:30:12 18° E
CSL-04 Debris 4.3 18:24:13 10° S 18:29:36 76° WSW 18:35:01 10° NNW
CSL-04 Rocket 3.9 18:26:06 10° S 18:31:33 77° WSW 18:37:06 10° NNW
Cosmos 1766 3.9 18:29:56 10° SSE 18:33:28 33° E 18:37:02 10° NNE
Okean 2 Rocket 3.5 18:29:18 10° SSW 18:33:45 66° W 18:38:13 10° N
ATLAS 2AS CENTAUR R/B 3.3 18:26:36 10° S 18:34:01 47° ESE 18:41:29 10° NE
YAOGAN 1 3.8 18:30:09 10° S 18:34:16 43° W 18:38:25 10° NNW
Cosmos 1025 Rocket 3.4 18:30:39 10° NNW 18:35:01 68° W 18:39:23 10° S
Cosmos 1634 Rocket 4.4 18:32:42 10° SSE 18:38:17 38° E 18:43:55 10° NNE
ATLAS 3B R/B 3.4 18:32:17 10° NNW 18:38:36 38° NE 18:42:34 21° E
Abrixas rocket 1.7 18:38:44 10° WNW 18:41:36 87° SSW 18:42:11 51° ESE
CREW DRAGON DEMO-1 DEB 2.7 18:40:31 10° WNW 18:43:33 86° NNE 18:44:16 49° ESE
Cosmos 1536 Rocket 3.8 18:40:22 10° NNW 18:44:49 73° W 18:49:16 10° S
Cosmos 1125 Rocket 3.5 18:41:10 10° SSW 18:46:29 87° WNW 18:51:51 10° NNE
EP 2 4.4 18:44:50 10° SSW 18:47:48 66° SE 18:48:34 44° ENE
SJ-6B 2.9 18:48:31 37° ESE 18:49:30 47° ENE 18:53:09 10° N
CZ-4 R/B 4.0 18:48:38 10° SSW 18:52:01 23° W 18:55:23 10° NW
CZ-2C R/B 4.3 18:48:52 10° S 18:54:00 46° W 18:59:24 10° NNW
Cosmos 2195 Rocket 4.4 18:48:59 10° N 18:55:11 63° E 19:00:07 16° SSE
USA 238 DEB 4.4 18:48:33 10° NW 18:55:38 59° WSW 19:02:58 10° SSE
USA 238 4.4 18:48:39 10° NW 18:55:45 59° WSW 19:03:05 10° SSE
Cosmos 2285 Rocket 3.9 18:50:52 10° SSW 18:57:10 87° ESE 19:03:34 10° NNE
Cosmos 1674 2.8 18:53:20 10° NNW 18:57:12 74° W 19:00:17 15° S
Cosmos 2026 Rocket 4.1 18:51:45 10° N 18:58:03 57° ENE 19:02:16 21° SSE
Cosmos 1092 Rocket 3.9 18:52:04 10° N 18:58:16 74° E 19:04:17 11° SSE
FREGAT/IRIS 4.1 19:04:41 24° N 19:04:41 24° N 19:05:54 10° N
MOS 1 Rocket 3.8 18:59:04 10° N 19:03:21 55° WNW 19:07:30 10° SSW
Cosmos 1428 Rocket 4.5 19:00:24 10° N 19:06:37 62° ENE 19:10:06 27° SSE
TSX-5 3.8 19:04:37 10° SSW 19:08:25 80° ESE 19:13:19 10° NNE
ARGOS 3.8 19:04:16 10° S 19:09:31 56° W 19:14:49 10° NNW
CZ-2C R/B 2.6 19:08:04 10° NNE 19:13:41 80° ESE 19:19:19 10° S
Cosmos 1340 Rocket 3.6 19:15:11 38° NE 19:15:11 38° NE 19:17:52 10° NNE
Cosmos 2279 Rocket 4.2 19:12:59 36° SE 19:14:46 45° E 19:20:41 10° NNE
Cosmos 1733 3.1 19:13:48 30° S 19:15:38 87° W 19:19:28 10° N
MOS 1 4.2 19:13:05 23° SSE 19:16:51 90° WSW 19:22:36 10° NNW
Lacrosse 5 rocket 3.2 19:16:10 10° NW 19:19:42 23° NNE 19:20:43 21° NE
Cosmos 2082 Rocket 3.0 19:15:48 10° N 19:20:53 33° NE 19:21:17 33° ENE
DMSP B5D2-2 4.0 19:18:11 10° NNE 19:23:32 84° ESE 19:28:48 10° SSW
BREEZE-M DEB (TANK) 4.1 19:20:06 10° W 19:23:40 44° SSW 19:27:36 27° SSE
BREEZE-M R/B 3.6 19:14:53 10° WSW 19:23:51 70° NNW 19:24:25 57° NE
OBJECT-B 2.4 19:28:48 29° N 19:28:48 29° N 19:30:32 10° N
Cosmos 1805 4.4 19:23:52 10° SSW 19:27:36 44° WNW 19:31:23 10° N
Cosmos 2142 Rocket 4.4 19:24:37 25° S 19:28:25 66° E 19:34:35 10° NNE
Ariane Rocket 3.5 19:28:06 21° S 19:31:22 57° W 19:36:24 10° NNW
Milstar 3 Cent rocket 4.2 19:29:35 10° SW 19:32:39 14° S 19:32:39 14° S
H-2A R/B 4.1 19:29:00 10° SSW 19:33:06 25° W 19:37:20 10° NW
USA 234 4.3 19:38:14 26° S 19:38:14 26° S 19:41:20 10° SSW
Cosmos 1269 Rocket 4.4 19:32:24 10° NNW 19:37:39 60° WSW 19:39:33 37° SSW
Cosmos 1626 3.1 19:38:52 10° NNW 19:42:02 46° WNW 19:42:02 46° WNW
Okean 1-7 Rocket 4.2 19:38:20 10° N 19:41:51 50° NNE 19:41:51 50° NNE
USA 186 4.1 19:42:34 21° WSW 19:43:11 22° W 19:45:48 10° NW
COSMOS 2406 3.2 19:41:19 10° NNW 19:47:00 77° WSW 19:47:55 62° S
ISS -1.4 19:45:54 10° WNW 19:47:46 23° NNW 19:47:46 23° NNW
Cosmos 2278 Rocket 2.3 19:44:53 10° SSW 19:51:32 61° NE 19:56:12 10° NNE
Lacrosse 4 Rocket 2.9 19:50:34 10° NNW 19:52:52 30° N 19:52:52 30° N
Meteor 1-24 Rocket 4.5 19:53:53 10° NNW 19:59:16 50° W 20:01:37 32° SSW
Cosmos 909 Rocket 4.1 19:53:21 10° NNW 19:59:48 60° NE 19:59:55 60° NE
Cosmos 2266 Rocket 4.3 19:55:41 10° N 20:00:33 49° NE 20:00:33 49° NE
Resurs 01 Rocket 2.6 20:03:26 45° NNW 20:03:26 45° NNW 20:06:34 10° NNW
NOSS 3-4 (A) 4.0 19:56:20 10° WSW 20:02:09 55° NW 20:08:25 10° NNE
NOSS 3-4 (C) 4.0 19:56:26 10° WSW 20:02:15 55° NW 20:08:31 10° NNE
Meteor 2-19 Rocket 4.3 19:57:23 10° N 20:03:32 89° W 20:03:47 83° S
Cosmos 1833 Rocket 2.9 20:06:27 10° NNW 20:11:54 65° W 20:11:54 65° W
Cosmos 2251 Rocket 4.1 20:09:34 10° NNW 20:13:44 55° NNW 20:13:44 55° NNW
CENTAUR R/B 4.5 20:09:45 10° NW 20:16:54 33° WSW 20:22:00 19° SSW
ARIANE 5 R/B 4.5 20:20:05 26° NNW 20:20:05 26° NNW 20:21:59 10° NNW
SPOT 3 Rocket 4.4 20:20:50 45° W 20:20:50 45° W 20:25:45 10° NNW
ATLAS 2AS CENTAUR R/B 3.7 20:17:16 10° WSW 20:25:02 54° NW 20:32:43 10° NNE
ATLAS 3B R/B 2.9 20:22:53 10° NW 20:29:40 62° WSW 20:29:50 62° SW
Cosmos 1655 Rocket 4.3 20:32:01 10° NNW 20:37:50 62° WNW 20:37:50 62° WNW
Lacrosse 5 rocket 4.2 20:55:08 10° NW 20:56:20 18° NW 20:56:20 18° NW
Cosmos 2082 Rocket 3.7 20:59:47 10° NW 21:03:08 32° WNW 21:03:08 32° WNW
Terra 4.5 21:21:44 15° NNW 21:21:44 15° NNW 21:22:36 10° NNW
Cosmos 2278 Rocket 4.4 21:33:01 17° WNW 21:35:17 21° NW 21:39:30 10° N
